M I D A S
Marine Information and Data Acquisition System
Tripno 1314 of the Zeeleeuw from 2007-07-10 09:12:23 to 2007-07-10 14:21:19
Back to CruiseResearch ActivitiesStationsMapUnderway DataData graphs

EquipmentUnitsComments
TimeDGPSUTC
LatitudeDGPSDM.mWGS84
LongitudeDGPSDM.mWGS84
SpeedMeteo Stationm/sRelative wind speed
DirectionMeteo StationdegRelative wind direction
TemperatureMeteo Stationdeg CelciusAir temperature
PressureMeteo StationPaAtmospheric pressure
HumidityMeteo Station%Relative humidity
Missing or incorrect values are displayed as -999
Metereological data collected by the RV Zeeleeuw from 2007-07-10 05:43:28 to 2007-07-10 14:29:43
                                                                                    Next 1000 lines
Time Latitude Longitude Speed Direction Temperature Pressure Humidity
2007-07-10 05:43:38 51°13.599 2°56.09 2 23 12.1 101100 100
2007-07-10 05:43:43 51°13.599 2°56.091 2 21 12.1 101100 100
2007-07-10 05:43:48 51°13.599 2°56.091 2.5 19 12.1 101100 100
2007-07-10 05:43:53 51°13.599 2°56.09 2.3 18 12.1 101110 100
2007-07-10 05:43:58 51°13.599 2°56.09 2.3 19 12.1 101110 100
2007-07-10 05:44:03 51°13.599 2°56.09 2.1 25 12.1 101100 100
2007-07-10 05:44:08 51°13.599 2°56.09 2.1 24 12.1 101100 100
2007-07-10 05:44:13 51°13.599 2°56.091 2.1 24 12.1 101110 100
2007-07-10 05:44:18 51°13.599 2°56.09 2.5 20 12.1 101110 100
2007-07-10 05:44:23 51°13.599 2°56.091 2.4 14 12.1 101100 100
2007-07-10 05:44:28 51°13.599 2°56.091 2.5 20 12.1 101100 100
2007-07-10 05:44:33 51°13.599 2°56.091 2.4 17 12.1 101100 100
2007-07-10 05:44:38 51°13.599 2°56.091 2.3 20 12.1 101100 100
2007-07-10 05:44:43 51°13.599 2°56.091 2.2 22 12.1 101100 100
2007-07-10 05:44:48 51°13.599 2°56.091 2.2 6 12.1 101100 100
2007-07-10 05:44:53 51°13.599 2°56.091 1.5 23 12.1 101100 100
2007-07-10 05:44:58 51°13.599 2°56.091 1.8 8 12.1 101100 100
2007-07-10 05:45:03 51°13.599 2°56.091 1.6 11 12.1 101110 100
2007-07-10 05:45:08 51°13.599 2°56.091 1.9 12 12.1 101110 100
2007-07-10 05:45:13 51°13.599 2°56.092 1.8 12 12.1 101100 100
2007-07-10 05:45:18 51°13.599 2°56.092 1.5 17 12.1 101100 100
2007-07-10 05:45:23 51°13.599 2°56.092 1.6 19 12.1 101100 100
2007-07-10 05:45:28 51°13.599 2°56.092 1.7 21 12.1 101100 100
2007-07-10 05:45:33 51°13.599 2°56.092 2 21 12.1 101100 100
2007-07-10 05:45:38 51°13.599 2°56.092 2.1 24 12.1 101100 100
2007-07-10 05:45:43 51°13.6 2°56.092 1.9 21 12.1 101100 100
2007-07-10 05:45:48 51°13.6 2°56.093 2.4 15 12.1 101100 100
2007-07-10 05:45:53 51°13.599 2°56.093 2.5 20 12.1 101100 100
2007-07-10 05:45:58 51°13.599 2°56.093 2.1 28 12.1 101100 100
2007-07-10 05:46:03 51°13.599 2°56.093 2.2 26 12.1 101100 100
2007-07-10 05:46:08 51°13.599 2°56.093 2.5 29 12.1 101100 100
2007-07-10 05:46:13 51°13.599 2°56.093 2.2 23 12.1 101110 100
2007-07-10 05:46:18 51°13.599 2°56.094 1.9 12 12.1 101110 100
2007-07-10 05:46:23 51°13.599 2°56.094 1.8 17 12.2 101100 100
2007-07-10 05:46:28 51°13.599 2°56.094 1.9 22 12.2 101100 100
2007-07-10 05:46:33 51°13.6 2°56.094 1.7 24 12.2 101100 100
2007-07-10 05:46:38 51°13.6 2°56.094 1.7 15 12.2 101100 100
2007-07-10 05:46:43 51°13.6 2°56.094 1.7 22 12.2 101100 100
2007-07-10 05:46:48 51°13.6 2°56.094 2.2 19 12.2 101100 100
2007-07-10 05:46:53 51°13.6 2°56.095 2.4 18 12.2 101100 100
2007-07-10 05:46:58 51°13.6 2°56.095 2.1 21 12.2 101100 100
2007-07-10 05:47:03 51°13.6 2°56.095 1.8 21 12.2 101100 100
2007-07-10 05:47:08 51°13.6 2°56.095 2.2 22 12.2 101100 100
2007-07-10 05:47:13 51°13.6 2°56.095 2.3 20 12.2 101100 100
2007-07-10 05:47:18 51°13.6 2°56.095 2 21 12.2 101100 100
2007-07-10 05:47:23 51°13.6 2°56.095 2 28 12.2 101100 100
2007-07-10 05:47:28 51°13.6 2°56.095 1.7 26 12.2 101100 100
2007-07-10 05:47:33 51°13.6 2°56.095 1.9 27 12.2 101100 100
2007-07-10 05:47:38 51°13.6 2°56.095 1.8 26 12.2 101100 100
2007-07-10 05:47:43 51°13.6 2°56.095 1.8 22 12.2 101100 100
2007-07-10 05:47:48 51°13.6 2°56.095 1.9 19 12.2 101100 100
2007-07-10 05:47:53 51°13.6 2°56.095 2 12 12.2 101100 100
2007-07-10 05:47:58 51°13.6 2°56.095 1.6 22 12.2 101100 100
2007-07-10 05:48:03 51°13.6 2°56.095 1.9 21 12.2 101100 100
2007-07-10 05:48:08 51°13.6 2°56.095 2 18 12.2 101100 100
2007-07-10 05:48:13 51°13.6 2°56.095 1.9 16 12.2 101110 100
2007-07-10 05:48:18 51°13.6 2°56.095 2 16 12.2 101110 100
2007-07-10 05:48:23 51°13.6 2°56.095 2.2 16 12.2 101100 100
2007-07-10 05:48:28 51°13.6 2°56.095 2 16 12.2 101100 100
2007-07-10 05:48:33 51°13.6 2°56.095 1.9 18 12.2 101100 100
2007-07-10 05:48:38 51°13.6 2°56.095 1.7 18 12.2 101100 100
2007-07-10 05:48:43 51°13.6 2°56.095 1.5 17 12.2 101100 100
2007-07-10 05:48:48 51°13.6 2°56.095 1.7 21 12.2 101100 100
2007-07-10 05:48:53 51°13.6 2°56.095 2 21 12.3 101100 100
2007-07-10 05:48:58 51°13.6 2°56.095 1.7 22 12.3 101100 100
2007-07-10 05:49:03 51°13.6 2°56.095 2.2 11 12.2 101100 100
2007-07-10 05:49:08 51°13.6 2°56.095 1.6 15 12.2 101100 100
2007-07-10 05:49:13 51°13.6 2°56.095 1.5 11 12.2 101100 100
2007-07-10 05:49:18 51°13.6 2°56.095 1.6 17 12.2 101100 100
2007-07-10 05:49:23 51°13.6 2°56.095 1.6 23 12.3 101100 100
2007-07-10 05:49:28 51°13.6 2°56.095 1.8 17 12.3 101100 100
2007-07-10 05:49:33 51°13.6 2°56.095 1.7 17 12.3 101100 100
2007-07-10 05:49:38 51°13.6 2°56.095 2 16 12.3 101100 100
2007-07-10 05:49:43 51°13.6 2°56.095 2.1 18 12.3 101100 100
2007-07-10 05:49:48 51°13.6 2°56.095 2.2 20 12.3 101100 100
2007-07-10 05:49:53 51°13.599 2°56.095 2.1 22 12.3 101100 100
2007-07-10 05:49:58 51°13.599 2°56.095 1.9 16 12.3 101100 100
2007-07-10 05:50:03 51°13.6 2°56.095 1.7 14 12.3 101100 100
2007-07-10 05:50:08 51°13.6 2°56.094 2.4 20 12.3 101100 100
2007-07-10 05:50:13 51°13.6 2°56.094 2.3 21 12.3 101100 100
2007-07-10 05:50:18 51°13.6 2°56.094 1.9 26 12.3 101100 100
2007-07-10 05:50:23 51°13.6 2°56.094 2.3 32 12.3 101100 100
2007-07-10 05:50:28 51°13.6 2°56.094 1.8 35 12.3 101100 100
2007-07-10 05:50:33 51°13.6 2°56.094 1.6 32 12.3 101100 100
2007-07-10 05:50:38 51°13.6 2°56.094 1.9 13 12.3 101100 100
2007-07-10 05:50:43 51°13.6 2°56.094 2.1 12 12.3 101100 100
2007-07-10 05:50:48 51°13.599 2°56.094 2.1 24 12.3 101100 100
2007-07-10 05:50:53 51°13.599 2°56.094 1.9 16 12.3 101100 100
2007-07-10 05:50:58 51°13.599 2°56.094 1.6 13 12.3 101100 100
2007-07-10 05:51:03 51°13.599 2°56.094 1.7 11 12.3 101100 100
2007-07-10 05:51:08 51°13.599 2°56.094 1.7 14 12.3 101100 100
2007-07-10 05:51:13 51°13.599 2°56.094 1.7 15 12.3 101100 100
2007-07-10 05:51:18 51°13.599 2°56.094 1.7 13 12.3 101100 100
2007-07-10 05:51:23 51°13.6 2°56.095 1.9 20 12.3 101100 100
2007-07-10 05:51:28 51°13.6 2°56.095 2.2 15 12.3 101100 100
2007-07-10 05:51:33 51°13.6 2°56.095 2.3 17 12.4 101100 100
2007-07-10 05:51:38 51°13.6 2°56.095 1.9 20 12.4 101100 100
2007-07-10 05:51:43 51°13.6 2°56.095 1.8 21 12.4 101100 100
2007-07-10 05:51:48 51°13.6 2°56.095 2.3 18 12.4 101100 100
2007-07-10 05:51:53 51°13.6 2°56.095 2.4 21 12.4 101100 100
2007-07-10 05:51:58 51°13.6 2°56.095 2.4 15 12.4 101100 100
2007-07-10 05:52:03 51°13.6 2°56.095 2.1 21 12.4 101100 100
2007-07-10 05:52:08 51°13.6 2°56.095 2.6 9 12.4 101100 100
2007-07-10 05:52:13 51°13.6 2°56.095 2.6 11 12.4 101100 100
2007-07-10 05:52:18 51°13.6 2°56.095 2.7 13 12.4 101100 100
2007-07-10 05:52:23 51°13.6 2°56.096 2.8 17 12.4 101100 100
2007-07-10 05:52:28 51°13.6 2°56.096 2.1 17 12.4 101100 100
2007-07-10 05:52:33 51°13.6 2°56.096 2.1 21 12.4 101100 100
2007-07-10 05:52:38 51°13.6 2°56.096 2.5 19 12.4 101100 100
2007-07-10 05:52:43 51°13.6 2°56.096 2.6 16 12.4 101100 100
2007-07-10 05:52:48 51°13.6 2°56.096 2.4 17 12.4 101100 100
2007-07-10 05:52:53 51°13.6 2°56.096 2.7 18 12.4 101100 100
2007-07-10 05:52:58 51°13.6 2°56.096 2.3 17 12.4 101100 100
2007-07-10 05:53:03 51°13.6 2°56.096 2.1 17 12.4 101100 100
2007-07-10 05:53:08 51°13.6 2°56.096 2.1 13 12.4 101100 100
2007-07-10 05:53:13 51°13.6 2°56.096 2 9 12.4 101100 100
2007-07-10 05:53:18 51°13.6 2°56.095 2.2 18 12.4 101100 100
2007-07-10 05:53:23 51°13.6 2°56.095 2.3 21 12.4 101100 100
2007-07-10 05:53:28 51°13.6 2°56.096 2.8 18 12.4 101100 100
2007-07-10 05:53:33 51°13.6 2°56.096 3 15 12.4 101100 100
2007-07-10 05:53:38 51°13.6 2°56.096 2.2 21 12.4 101100 100
2007-07-10 05:53:43 51°13.6 2°56.095 2.4 18 12.3 101100 100
2007-07-10 05:53:48 51°13.6 2°56.095 2.8 18 12.3 101100 100
2007-07-10 05:53:53 51°13.6 2°56.095 2.9 20 12.4 101100 100
2007-07-10 05:53:58 51°13.6 2°56.095 2.6 17 12.4 101100 100
2007-07-10 05:54:03 51°13.6 2°56.095 2.9 16 12.4 101100 100
2007-07-10 05:54:08 51°13.601 2°56.095 2.2 13 12.4 101100 100
2007-07-10 05:54:13 51°13.601 2°56.095 2.1 16 12.4 101100 100
2007-07-10 05:54:18 51°13.601 2°56.095 2.4 16 12.4 101100 100
2007-07-10 05:54:23 51°13.601 2°56.095 2.4 19 12.4 101100 100
2007-07-10 05:54:28 51°13.601 2°56.095 2.2 15 12.4 101100 100
2007-07-10 05:54:33 51°13.601 2°56.095 2.4 18 12.4 101100 100
2007-07-10 05:54:38 51°13.601 2°56.095 2.5 20 12.4 101100 100
2007-07-10 05:54:43 51°13.601 2°56.095 2.3 15 12.4 101100 100
2007-07-10 05:54:48 51°13.601 2°56.095 2 21 12.4 101100 100
2007-07-10 05:54:53 51°13.601 2°56.095 2.3 19 12.4 101100 100
2007-07-10 05:54:58 51°13.601 2°56.096 2.5 18 12.4 101100 100
2007-07-10 05:55:03 51°13.601 2°56.096 2.4 22 12.4 101100 100
2007-07-10 05:55:08 51°13.601 2°56.096 1.9 18 12.4 101100 100
2007-07-10 05:55:13 51°13.601 2°56.096 1.9 20 12.4 101100 100
2007-07-10 05:55:18 51°13.6 2°56.096 2.2 22 12.4 101100 100
2007-07-10 05:55:23 51°13.6 2°56.096 1.5 37 12.4 101100 100
2007-07-10 05:55:28 51°13.6 2°56.096 2 26 12.4 101100 100
2007-07-10 05:55:33 51°13.6 2°56.096 1.8 14 12.4 101100 100
2007-07-10 05:55:38 51°13.6 2°56.096 2 18 12.4 101100 100
2007-07-10 05:55:43 51°13.601 2°56.095 1.9 18 12.4 101100 100
2007-07-10 05:55:48 51°13.601 2°56.095 1.7 16 12.4 101100 100
2007-07-10 05:55:53 51°13.601 2°56.095 1.9 16 12.4 101100 100
2007-07-10 05:55:58 51°13.601 2°56.095 2.2 18 12.4 101100 100
2007-07-10 05:56:03 51°13.601 2°56.095 2.3 35 12.4 101100 100
2007-07-10 05:56:08 51°13.601 2°56.095 2.2 17 12.4 101100 100
2007-07-10 05:56:13 51°13.601 2°56.095 1.7 15 12.4 101100 100
2007-07-10 05:56:18 51°13.601 2°56.095 2.1 20 12.4 101100 100
2007-07-10 05:56:23 51°13.601 2°56.095 1.7 24 12.4 101100 100
2007-07-10 05:56:28 51°13.601 2°56.095 1.5 13 12.4 101100 100
2007-07-10 05:56:33 51°13.601 2°56.095 1.8 14 12.4 101100 100
2007-07-10 05:56:38 51°13.601 2°56.095 1.7 16 12.4 101100 100
2007-07-10 05:56:43 51°13.601 2°56.095 1.3 4 12.4 101100 100
2007-07-10 05:56:48 51°13.601 2°56.095 1.7 6 12.4 101100 100
2007-07-10 05:56:53 51°13.601 2°56.095 1.6 20 12.5 101100 100
2007-07-10 05:56:58 51°13.601 2°56.095 2.1 9 12.5 101100 100
2007-07-10 05:57:03 51°13.601 2°56.095 2.5 15 12.5 101100 100
2007-07-10 05:57:08 51°13.601 2°56.095 2.5 17 12.5 101100 100
2007-07-10 05:57:13 51°13.601 2°56.095 2 23 12.5 101100 100
2007-07-10 05:57:18 51°13.601 2°56.095 2.1 27 12.5 101100 100
2007-07-10 05:57:23 51°13.601 2°56.095 1.7 29 12.5 101100 100
2007-07-10 05:57:28 51°13.601 2°56.095 1.9 27 12.5 101100 100
2007-07-10 05:57:33 51°13.601 2°56.094 2 18 12.5 101100 100
2007-07-10 05:57:38 51°13.601 2°56.094 1.8 28 12.5 101100 100
2007-07-10 05:57:43 51°13.601 2°56.094 1.7 27 12.5 101100 100
2007-07-10 05:57:48 51°13.601 2°56.094 2 19 12.5 101100 100
2007-07-10 05:57:53 51°13.601 2°56.094 1.6 19 12.5 101100 100
2007-07-10 05:57:58 51°13.601 2°56.094 1.5 27 12.5 101100 100
2007-07-10 05:58:03 51°13.601 2°56.094 1.6 19 12.5 101100 100
2007-07-10 05:58:08 51°13.601 2°56.094 1.6 28 12.5 101100 100
2007-07-10 05:58:13 51°13.6 2°56.094 1.6 27 12.5 101100 100
2007-07-10 05:58:18 51°13.6 2°56.094 2.1 16 12.5 101100 100
2007-07-10 05:58:23 51°13.6 2°56.095 2.5 21 12.5 101100 100
2007-07-10 05:58:28 51°13.6 2°56.095 2.3 21 12.5 101100 100
2007-07-10 05:58:33 51°13.6 2°56.095 2.2 27 12.5 101100 100
2007-07-10 05:58:38 51°13.6 2°56.095 2.4 26 12.5 101100 100
2007-07-10 05:58:43 51°13.6 2°56.095 2.2 19 12.5 101100 100
2007-07-10 05:58:48 51°13.6 2°56.095 2.4 16 12.5 101100 100
2007-07-10 05:58:53 51°13.6 2°56.095 2.1 22 12.5 101100 100
2007-07-10 05:58:58 51°13.6 2°56.095 2.1 15 12.5 101100 100
2007-07-10 05:59:03 51°13.6 2°56.095 1.8 5 12.5 101100 100
2007-07-10 05:59:08 51°13.6 2°56.095 1.9 16 12.5 101100 100
2007-07-10 05:59:13 51°13.6 2°56.095 1.9 25 12.6 101100 100
2007-07-10 05:59:18 51°13.6 2°56.095 1.8 19 12.6 101100 100
2007-07-10 05:59:23 51°13.6 2°56.095 1.9 16 12.6 101100 100
2007-07-10 05:59:28 51°13.6 2°56.095 2.3 19 12.6 101100 100
2007-07-10 05:59:33 51°13.6 2°56.095 2.1 19 12.5 101100 100
2007-07-10 05:59:38 51°13.6 2°56.095 2.6 18 12.5 101100 100
2007-07-10 05:59:43 51°13.6 2°56.095 2.7 21 12.6 101100 100
2007-07-10 05:59:48 51°13.6 2°56.095 2.6 20 12.6 101100 100
2007-07-10 05:59:53 51°13.6 2°56.096 2.6 19 12.6 101100 100
2007-07-10 05:59:58 51°13.6 2°56.096 2.6 7 12.6 101100 100
2007-07-10 06:00:03 51°13.6 2°56.096 2.1 15 12.6 101100 100
2007-07-10 06:00:08 51°13.6 2°56.096 2.2 15 12.6 101100 100
2007-07-10 06:00:13 51°13.6 2°56.096 2.7 14 12.6 101100 100
2007-07-10 06:00:18 51°13.6 2°56.096 2.5 13 12.6 101100 100
2007-07-10 06:00:23 51°13.6 2°56.096 2.6 17 12.6 101100 100
2007-07-10 06:00:28 51°13.6 2°56.096 2.3 12 12.6 101100 100
2007-07-10 06:00:33 51°13.6 2°56.096 1.9 18 12.6 101100 100
2007-07-10 06:00:38 51°13.6 2°56.096 2.2 19 12.6 101100 100
2007-07-10 06:00:43 51°13.599 2°56.096 1.8 25 12.6 101100 100
2007-07-10 06:00:48 51°13.599 2°56.096 2.4 21 12.6 101100 100
2007-07-10 06:00:53 51°13.599 2°56.096 2 22 12.6 101100 100
2007-07-10 06:00:58 51°13.599 2°56.096 2.2 21 12.6 101100 100
2007-07-10 06:01:03 51°13.599 2°56.096 2 21 12.6 101100 100
2007-07-10 06:01:08 51°13.599 2°56.096 1.9 19 12.6 101100 100
2007-07-10 06:01:13 51°13.599 2°56.096 1.9 17 12.6 101100 100
2007-07-10 06:01:18 51°13.599 2°56.096 2.5 17 12.6 101100 100
2007-07-10 06:01:23 51°13.599 2°56.096 2.2 14 12.6 101100 100
2007-07-10 06:01:28 51°13.599 2°56.096 1.9 14 12.6 101100 100
2007-07-10 06:01:33 51°13.599 2°56.095 1.9 10 12.6 101100 100
2007-07-10 06:01:38 51°13.599 2°56.095 1.9 23 12.6 101100 100
2007-07-10 06:01:43 51°13.599 2°56.095 2 20 12.6 101100 100
2007-07-10 06:01:48 51°13.599 2°56.096 2.3 20 12.6 101100 100
2007-07-10 06:01:53 51°13.599 2°56.096 2.1 15 12.6 101100 100
2007-07-10 06:01:58 51°13.599 2°56.096 2.4 27 12.6 101100 100
2007-07-10 06:02:03 51°13.599 2°56.096 2.3 22 12.6 101100 100
2007-07-10 06:02:08 51°13.599 2°56.096 2.2 16 12.6 101100 100
2007-07-10 06:02:13 51°13.599 2°56.096 2.5 23 12.6 101100 100
2007-07-10 06:02:18 51°13.599 2°56.096 2.1 28 12.6 101100 100
2007-07-10 06:02:23 51°13.599 2°56.096 2.1 19 12.6 101100 100
2007-07-10 06:02:28 51°13.599 2°56.096 1.9 21 12.6 101100 100
2007-07-10 06:02:33 51°13.599 2°56.095 2 23 12.6 101100 100
2007-07-10 06:02:38 51°13.599 2°56.095 1.8 27 12.6 101100 100
2007-07-10 06:02:43 51°13.599 2°56.095 1.6 25 12.6 101100 100
2007-07-10 06:02:48 51°13.599 2°56.095 1.7 25 12.6 101100 100
2007-07-10 06:02:53 51°13.599 2°56.095 1.5 23 12.6 101100 100
2007-07-10 06:02:58 51°13.599 2°56.095 1.5 35 12.6 101100 100
2007-07-10 06:03:03 51°13.599 2°56.095 1.5 16 12.6 101100 100
2007-07-10 06:03:08 51°13.599 2°56.095 1.3 18 12.6 101100 100
2007-07-10 06:03:13 51°13.599 2°56.095 1.5 32 12.6 101100 100
2007-07-10 06:03:18 51°13.599 2°56.095 1.6 29 12.6 101100 100
2007-07-10 06:03:23 51°13.599 2°56.095 1.6 26 12.6 101100 100
2007-07-10 06:03:28 51°13.599 2°56.095 1.6 14 12.6 101100 100
2007-07-10 06:03:33 51°13.599 2°56.095 1.3 21 12.6 101100 100
2007-07-10 06:03:38 51°13.599 2°56.095 1.7 20 12.6 101100 100
2007-07-10 06:03:43 51°13.599 2°56.095 1.6 25 12.6 101100 100
2007-07-10 06:03:48 51°13.599 2°56.095 1.7 25 12.6 101100 100
2007-07-10 06:03:53 51°13.599 2°56.095 1.8 22 12.6 101100 100
2007-07-10 06:03:58 51°13.599 2°56.095 1.6 26 12.6 101100 100
2007-07-10 06:04:03 51°13.599 2°56.095 1.6 19 12.6 101100 100
2007-07-10 06:04:08 51°13.599 2°56.095 1.6 18 12.6 101100 100
2007-07-10 06:04:13 51°13.599 2°56.096 1.9 21 12.6 101100 100
2007-07-10 06:04:18 51°13.599 2°56.096 1.8 27 12.6 101100 100
2007-07-10 06:04:23 51°13.599 2°56.096 1.4 28 12.6 101100 100
2007-07-10 06:04:28 51°13.599 2°56.096 1.5 21 12.6 101100 100
2007-07-10 06:04:33 51°13.599 2°56.096 1.4 35 12.6 101100 100
2007-07-10 06:04:38 51°13.599 2°56.096 1.7 20 12.6 101100 100
2007-07-10 06:04:43 51°13.599 2°56.096 1.4 16 12.7 101100 100
2007-07-10 06:04:48 51°13.599 2°56.096 1.5 16 12.7 101100 100
2007-07-10 06:04:53 51°13.599 2°56.096 1.5 19 12.7 101100 100
2007-07-10 06:04:58 51°13.599 2°56.096 1.9 18 12.7 101100 100
2007-07-10 06:05:03 51°13.599 2°56.096 2.2 29 12.7 101100 100
2007-07-10 06:05:08 51°13.599 2°56.096 2 21 12.7 101100 100
2007-07-10 06:05:13 51°13.599 2°56.096 2.1 22 12.7 101100 100
2007-07-10 06:05:18 51°13.599 2°56.096 2 26 12.7 101100 100
2007-07-10 06:05:23 51°13.599 2°56.096 1.6 19 12.7 101100 100
2007-07-10 06:05:28 51°13.599 2°56.096 2.1 31 12.7 101100 100
2007-07-10 06:05:33 51°13.599 2°56.096 2.2 15 12.7 101100 100
2007-07-10 06:05:38 51°13.599 2°56.096 2.4 20 12.7 101100 100
2007-07-10 06:05:43 51°13.599 2°56.096 2.5 28 12.7 101100 100
2007-07-10 06:05:48 51°13.599 2°56.096 2.3 25 12.7 101100 100
2007-07-10 06:05:53 51°13.599 2°56.096 2.2 22 12.7 101100 100
2007-07-10 06:05:58 51°13.599 2°56.096 2.8 8 12.7 101100 100
2007-07-10 06:06:03 51°13.599 2°56.096 2.4 9 12.7 101100 100
2007-07-10 06:06:08 51°13.599 2°56.096 2.6 19 12.7 101100 100
2007-07-10 06:06:13 51°13.599 2°56.096 2.7 20 12.7 101100 100
2007-07-10 06:06:18 51°13.599 2°56.096 2.4 16 12.7 101100 100
2007-07-10 06:06:23 51°13.599 2°56.096 2.1 19 12.7 101100 100
2007-07-10 06:06:28 51°13.599 2°56.096 2.5 18 12.7 101100 100
2007-07-10 06:06:33 51°13.599 2°56.096 2.3 28 12.7 101100 100
2007-07-10 06:06:38 51°13.599 2°56.096 2.2 24 12.7 101100 100
2007-07-10 06:06:43 51°13.599 2°56.096 2.1 20 12.7 101100 100
2007-07-10 06:06:48 51°13.599 2°56.096 2.4 29 12.7 101100 100
2007-07-10 06:06:53 51°13.599 2°56.096 2.4 14 12.7 101100 100
2007-07-10 06:06:58 51°13.599 2°56.096 2.2 20 12.7 101100 100
2007-07-10 06:07:03 51°13.599 2°56.096 2.2 18 12.7 101100 100
2007-07-10 06:07:08 51°13.599 2°56.096 2.8 18 12.7 101100 100
2007-07-10 06:07:13 51°13.599 2°56.096 1.9 18 12.7 101100 100
2007-07-10 06:07:18 51°13.599 2°56.096 2 15 12.7 101100 100
2007-07-10 06:07:23 51°13.599 2°56.096 2.3 21 12.7 101100 100
2007-07-10 06:07:28 51°13.599 2°56.096 2.2 17 12.7 101100 100
2007-07-10 06:07:33 51°13.599 2°56.096 2 13 12.7 101100 100
2007-07-10 06:07:38 51°13.599 2°56.096 2.3 2 12.7 101100 100
2007-07-10 06:07:43 51°13.599 2°56.096 1.9 12 12.7 101100 100
2007-07-10 06:07:48 51°13.599 2°56.096 2 358 12.7 101100 100
2007-07-10 06:07:53 51°13.599 2°56.096 2.3 15 12.7 101100 100
2007-07-10 06:07:58 51°13.599 2°56.096 1.9 19 12.7 101100 100
2007-07-10 06:08:03 51°13.599 2°56.096 2.2 17 12.7 101100 100
2007-07-10 06:08:08 51°13.599 2°56.096 2.2 4 12.7 101100 100
2007-07-10 06:08:13 51°13.599 2°56.096 2 8 12.7 101100 100
2007-07-10 06:08:18 51°13.599 2°56.096 2.4 12 12.7 101100 100
2007-07-10 06:08:23 51°13.599 2°56.096 2 18 12.7 101100 100
2007-07-10 06:08:28 51°13.599 2°56.096 1.5 18 12.7 101100 100
2007-07-10 06:08:33 51°13.599 2°56.096 1.5 14 12.7 101100 100
2007-07-10 06:08:38 51°13.599 2°56.096 1.5 10 12.7 101100 100
2007-07-10 06:08:43 51°13.599 2°56.097 2.2 11 12.7 101100 100
2007-07-10 06:08:48 51°13.599 2°56.097 1.4 29 12.7 101100 100
2007-07-10 06:08:53 51°13.599 2°56.097 1.6 15 12.7 101100 100
2007-07-10 06:08:58 51°13.599 2°56.097 2.4 11 12.7 101100 100
2007-07-10 06:09:03 51°13.599 2°56.097 1.8 10 12.7 101100 100
2007-07-10 06:09:08 51°13.599 2°56.097 1.7 15 12.7 101100 100
2007-07-10 06:09:13 51°13.599 2°56.097 1.8 16 12.7 101100 100
2007-07-10 06:09:18 51°13.599 2°56.097 1.8 9 12.7 101100 100
2007-07-10 06:09:23 51°13.599 2°56.097 1.3 19 12.7 101100 100
2007-07-10 06:09:28 51°13.599 2°56.097 1.6 9 12.7 101100 100
2007-07-10 06:09:33 51°13.599 2°56.097 1.5 26 12.7 101100 100
2007-07-10 06:09:38 51°13.599 2°56.097 1.9 19 12.7 101100 100
2007-07-10 06:09:43 51°13.599 2°56.097 1.8 17 12.7 101100 100
2007-07-10 06:09:48 51°13.598 2°56.097 1.5 14 12.7 101100 100
2007-07-10 06:09:53 51°13.598 2°56.097 1.7 14 12.7 101100 100
2007-07-10 06:09:58 51°13.599 2°56.097 1.9 16 12.7 101100 100
2007-07-10 06:10:03 51°13.599 2°56.097 2 10 12.7 101100 100
2007-07-10 06:10:08 51°13.599 2°56.097 1.7 17 12.7 101100 100
2007-07-10 06:10:13 51°13.599 2°56.097 1.5 17 12.7 101100 100
2007-07-10 06:10:18 51°13.599 2°56.097 2.3 12 12.7 101100 100
2007-07-10 06:10:23 51°13.599 2°56.097 2.5 14 12.7 101100 100
2007-07-10 06:10:28 51°13.599 2°56.097 2.3 12 12.7 101100 100
2007-07-10 06:10:33 51°13.599 2°56.097 2.1 10 12.7 101100 100
2007-07-10 06:10:38 51°13.599 2°56.097 2.1 10 12.7 101100 100
2007-07-10 06:10:43 51°13.599 2°56.097 2.4 10 12.7 101100 100
2007-07-10 06:10:48 51°13.599 2°56.097 2.2 13 12.7 101100 100
2007-07-10 06:10:53 51°13.599 2°56.097 2.2 14 12.7 101100 100
2007-07-10 06:10:58 51°13.599 2°56.097 2.1 17 12.7 101100 100
2007-07-10 06:11:03 51°13.599 2°56.097 1.9 22 12.7 101100 100
2007-07-10 06:11:08 51°13.599 2°56.097 2 19 12.7 101100 100
2007-07-10 06:11:13 51°13.599 2°56.097 1.8 28 12.7 101100 100
2007-07-10 06:11:18 51°13.599 2°56.097 1.8 24 12.7 101100 100
2007-07-10 06:11:23 51°13.599 2°56.097 1.9 22 12.7 101100 100
2007-07-10 06:11:28 51°13.599 2°56.097 1.8 24 12.7 101100 100
2007-07-10 06:11:33 51°13.599 2°56.097 1.7 15 12.6 101100 100
2007-07-10 06:11:38 51°13.599 2°56.097 2.4 22 12.6 101100 100
2007-07-10 06:11:43 51°13.599 2°56.096 2.1 18 12.6 101100 100
2007-07-10 06:11:48 51°13.599 2°56.097 2.2 13 12.6 101100 100
2007-07-10 06:11:53 51°13.599 2°56.097 2 14 12.7 101100 100
2007-07-10 06:11:58 51°13.598 2°56.097 2 14 12.7 101100 100
2007-07-10 06:12:03 51°13.598 2°56.096 1.7 13 12.7 101100 100
2007-07-10 06:12:08 51°13.598 2°56.096 1.7 11 12.7 101100 100
2007-07-10 06:12:13 51°13.598 2°56.096 1.9 8 12.7 101100 100
2007-07-10 06:12:18 51°13.598 2°56.096 1.8 359 12.7 101100 100
2007-07-10 06:12:23 51°13.598 2°56.096 2.2 7 12.7 101100 100
2007-07-10 06:12:28 51°13.598 2°56.096 2.3 -999 12.7 101100 100
2007-07-10 06:12:33 51°13.598 2°56.096 1.6 2 12.7 101100 100
2007-07-10 06:12:38 51°13.598 2°56.096 1.6 5 12.7 101100 100
2007-07-10 06:12:43 51°13.598 2°56.096 1.3 9 12.7 101100 100
2007-07-10 06:12:48 51°13.598 2°56.097 1.1 11 12.7 101100 100
2007-07-10 06:12:53 51°13.598 2°56.097 1.3 11 12.7 101100 100
2007-07-10 06:12:58 51°13.597 2°56.097 1.4 32 12.7 101100 100
2007-07-10 06:13:03 51°13.597 2°56.097 1.4 25 12.7 101100 100
2007-07-10 06:13:08 51°13.597 2°56.097 1.7 28 12.7 101100 100
2007-07-10 06:13:13 51°13.597 2°56.097 2.3 28 12.7 101100 100
2007-07-10 06:13:18 51°13.597 2°56.097 2.3 28 12.7 101100 100
2007-07-10 06:13:23 51°13.597 2°56.097 2 25 12.7 101100 100
2007-07-10 06:13:28 51°13.597 2°56.097 2.1 26 12.7 101100 100
2007-07-10 06:13:33 51°13.597 2°56.097 1.9 20 12.8 101100 100
2007-07-10 06:13:38 51°13.597 2°56.097 1.6 18 12.8 101100 100
2007-07-10 06:13:43 51°13.597 2°56.097 1.9 23 12.8 101100 100
2007-07-10 06:13:48 51°13.597 2°56.097 1.8 21 12.8 101100 100
2007-07-10 06:13:53 51°13.597 2°56.097 1.9 7 12.8 101100 100
2007-07-10 06:13:58 51°13.597 2°56.097 1.3 14 12.8 101100 100
2007-07-10 06:14:03 51°13.597 2°56.097 1.5 17 12.7 101100 100
2007-07-10 06:14:08 51°13.597 2°56.097 1.9 7 12.7 101100 100
2007-07-10 06:14:13 51°13.597 2°56.097 1.6 12 12.8 101100 100
2007-07-10 06:14:18 51°13.597 2°56.097 1.8 10 12.8 101100 100
2007-07-10 06:14:23 51°13.597 2°56.097 2.1 16 12.7 101100 100
2007-07-10 06:14:28 51°13.597 2°56.097 1.9 9 12.7 101100 100
2007-07-10 06:14:33 51°13.597 2°56.097 2.4 15 12.7 101100 100
2007-07-10 06:14:38 51°13.597 2°56.097 1.6 27 12.7 101100 100
2007-07-10 06:14:43 51°13.597 2°56.097 1.7 32 12.7 101100 100
2007-07-10 06:14:48 51°13.597 2°56.097 1.6 29 12.7 101100 100
2007-07-10 06:14:53 51°13.597 2°56.097 1.4 30 12.7 101100 100
2007-07-10 06:14:58 51°13.597 2°56.097 1.5 17 12.7 101100 100
2007-07-10 06:15:03 51°13.597 2°56.097 1.7 19 12.7 101100 100
2007-07-10 06:15:08 51°13.597 2°56.097 1.6 23 12.7 101100 100
2007-07-10 06:15:13 51°13.597 2°56.097 1.9 18 12.8 101100 100
2007-07-10 06:15:18 51°13.597 2°56.097 2.1 37 12.8 101100 100
2007-07-10 06:15:23 51°13.597 2°56.097 1.9 28 12.8 101100 100
2007-07-10 06:15:28 51°13.597 2°56.097 2 27 12.8 101100 100
2007-07-10 06:15:33 51°13.597 2°56.097 1.8 26 12.8 101100 100
2007-07-10 06:15:38 51°13.597 2°56.097 1.9 20 12.8 101100 100
2007-07-10 06:15:43 51°13.597 2°56.097 1.9 18 12.8 101100 100
2007-07-10 06:15:48 51°13.597 2°56.097 2.1 23 12.8 101100 100
2007-07-10 06:15:53 51°13.597 2°56.097 1.9 22 12.8 101100 100
2007-07-10 06:15:58 51°13.598 2°56.097 1.5 25 12.8 101100 100
2007-07-10 06:16:03 51°13.598 2°56.097 1.4 24 12.8 101100 100
2007-07-10 06:16:08 51°13.598 2°56.097 1.5 25 12.8 101100 100
2007-07-10 06:16:13 51°13.598 2°56.097 1.6 17 12.8 101100 100
2007-07-10 06:16:18 51°13.598 2°56.096 2.1 16 12.8 101100 100
2007-07-10 06:16:23 51°13.598 2°56.096 1.6 16 12.8 101100 100
2007-07-10 06:16:28 51°13.598 2°56.096 1.8 16 12.8 101100 100
2007-07-10 06:16:33 51°13.598 2°56.096 1.6 18 12.8 101100 100
2007-07-10 06:16:38 51°13.598 2°56.096 1.5 14 12.8 101100 100
2007-07-10 06:16:43 51°13.598 2°56.096 2 9 12.8 101100 100
2007-07-10 06:16:48 51°13.598 2°56.096 1.8 6 12.8 101100 100
2007-07-10 06:16:53 51°13.598 2°56.096 1.6 7 12.8 101100 100
2007-07-10 06:16:58 51°13.598 2°56.096 1.7 13 12.8 101100 100
2007-07-10 06:17:03 51°13.598 2°56.096 2 15 12.8 101100 100
2007-07-10 06:17:08 51°13.598 2°56.096 2 18 12.8 101100 100
2007-07-10 06:17:13 51°13.598 2°56.096 2.2 27 12.8 101100 100
2007-07-10 06:17:18 51°13.598 2°56.096 2.1 15 12.8 101100 100
2007-07-10 06:17:23 51°13.598 2°56.096 1.9 20 12.8 101100 100
2007-07-10 06:17:28 51°13.598 2°56.096 1.8 17 12.8 101100 100
2007-07-10 06:17:33 51°13.598 2°56.096 1.5 10 12.8 101100 100
2007-07-10 06:17:38 51°13.598 2°56.096 1.2 25 12.8 101100 100
2007-07-10 06:17:43 51°13.598 2°56.096 1.6 18 12.9 101100 100
2007-07-10 06:17:48 51°13.598 2°56.096 1.8 23 12.9 101100 100
2007-07-10 06:17:53 51°13.598 2°56.096 1.8 23 12.9 101100 100
2007-07-10 06:17:58 51°13.598 2°56.096 1.8 22 12.9 101100 100
2007-07-10 06:18:03 51°13.598 2°56.096 1.3 31 12.9 101100 100
2007-07-10 06:18:08 51°13.598 2°56.096 1.1 29 12.9 101100 100
2007-07-10 06:18:13 51°13.598 2°56.096 1.3 34 12.9 101100 100
2007-07-10 06:18:18 51°13.598 2°56.096 1.4 34 12.9 101100 100
2007-07-10 06:18:23 51°13.598 2°56.096 1.5 20 12.9 101100 100
2007-07-10 06:18:28 51°13.598 2°56.096 2 13 12.9 101100 100
2007-07-10 06:18:33 51°13.598 2°56.096 1.7 9 12.9 101110 100
2007-07-10 06:18:38 51°13.598 2°56.096 1.9 9 12.9 101110 100
2007-07-10 06:18:43 51°13.598 2°56.096 2.2 10 13 101110 100
2007-07-10 06:18:48 51°13.598 2°56.096 1.9 9 13 101110 100
2007-07-10 06:18:53 51°13.598 2°56.096 1.9 17 13 101100 100
2007-07-10 06:18:58 51°13.598 2°56.096 2.1 18 13 101100 100
2007-07-10 06:19:03 51°13.598 2°56.096 1.8 15 13 101100 100
2007-07-10 06:19:08 51°13.598 2°56.096 1.7 24 13 101100 100
2007-07-10 06:19:13 51°13.598 2°56.096 1.7 28 13 101100 100
2007-07-10 06:19:18 51°13.598 2°56.096 1.7 19 13 101100 100
2007-07-10 06:19:23 51°13.598 2°56.096 1.8 24 13 101110 100
2007-07-10 06:19:28 51°13.598 2°56.096 1.8 19 13 101110 100
2007-07-10 06:19:33 51°13.598 2°56.096 1.9 19 13 101100 100
2007-07-10 06:19:38 51°13.598 2°56.096 1.6 29 13 101100 100
2007-07-10 06:19:43 51°13.598 2°56.096 1.5 30 13.1 101100 100
2007-07-10 06:19:48 51°13.598 2°56.096 1.3 32 13.1 101100 100
2007-07-10 06:19:53 51°13.598 2°56.096 1.1 27 13.1 101110 100
2007-07-10 06:19:58 51°13.598 2°56.096 1.3 19 13.1 101110 100
2007-07-10 06:20:03 51°13.598 2°56.096 1.5 26 13.1 101100 100
2007-07-10 06:20:08 51°13.598 2°56.096 1.5 22 13.1 101100 100
2007-07-10 06:20:13 51°13.598 2°56.096 1.3 16 13.1 101100 100
2007-07-10 06:20:18 51°13.598 2°56.096 1.3 25 13.1 101100 100
2007-07-10 06:20:23 51°13.598 2°56.096 1 23 13.1 101110 100
2007-07-10 06:20:28 51°13.597 2°56.096 1.1 26 13.1 101110 100
2007-07-10 06:20:33 51°13.597 2°56.096 1.4 24 13.2 101100 100
2007-07-10 06:20:38 51°13.597 2°56.095 1.6 27 13.2 101100 100
2007-07-10 06:20:43 51°13.597 2°56.095 1.8 33 13.2 101110 100
2007-07-10 06:20:48 51°13.597 2°56.095 2 27 13.2 101110 100
2007-07-10 06:20:53 51°13.597 2°56.095 1.9 26 13.2 101110 100
2007-07-10 06:20:58 51°13.597 2°56.095 1.7 28 13.2 101110 100
2007-07-10 06:21:03 51°13.597 2°56.095 1.6 29 13.2 101100 100
2007-07-10 06:21:08 51°13.597 2°56.095 1.7 27 13.2 101100 100
2007-07-10 06:21:13 51°13.597 2°56.095 1.7 27 13.2 101110 100
2007-07-10 06:21:18 51°13.597 2°56.095 1.6 23 13.2 101110 100
2007-07-10 06:21:23 51°13.597 2°56.095 1.3 26 13.2 101110 100
2007-07-10 06:21:28 51°13.598 2°56.094 1.5 27 13.2 101110 100
2007-07-10 06:21:33 51°13.598 2°56.094 1.9 29 13.2 101110 100
2007-07-10 06:21:38 51°13.598 2°56.094 2.1 33 13.2 101110 100
2007-07-10 06:21:43 51°13.598 2°56.094 1.5 28 13.2 101100 100
2007-07-10 06:21:48 51°13.598 2°56.094 1.3 25 13.2 101100 100
2007-07-10 06:21:53 51°13.598 2°56.094 1.4 22 13.3 101100 100
2007-07-10 06:21:58 51°13.598 2°56.094 1.6 33 13.3 101100 100
2007-07-10 06:22:03 51°13.598 2°56.094 1.6 22 13.3 101110 100
2007-07-10 06:22:08 51°13.598 2°56.094 1.5 18 13.3 101110 100
2007-07-10 06:22:13 51°13.598 2°56.094 1.4 26 13.3 101100 100
2007-07-10 06:22:18 51°13.598 2°56.094 1.4 23 13.3 101100 100
2007-07-10 06:22:23 51°13.598 2°56.094 1.1 19 13.3 101100 100
2007-07-10 06:22:28 51°13.598 2°56.094 1.7 359 13.3 101100 100
2007-07-10 06:22:33 51°13.598 2°56.094 1.3 16 13.3 101100 100
2007-07-10 06:22:38 51°13.598 2°56.094 1.4 22 13.3 101100 100
2007-07-10 06:22:43 51°13.599 2°56.094 1.3 31 13.3 101110 100
2007-07-10 06:22:48 51°13.599 2°56.094 1.3 33 13.3 101110 100
2007-07-10 06:22:53 51°13.599 2°56.094 1.5 25 13.3 101100 100
2007-07-10 06:22:58 51°13.599 2°56.094 1.5 21 13.3 101100 100
2007-07-10 06:23:03 51°13.599 2°56.094 1.5 15 13.3 101110 100
2007-07-10 06:23:08 51°13.599 2°56.094 1.6 12 13.3 101110 100
2007-07-10 06:23:13 51°13.599 2°56.094 1 24 13.3 101100 100
2007-07-10 06:23:18 51°13.599 2°56.094 1.3 22 13.3 101100 100
2007-07-10 06:23:23 51°13.599 2°56.094 1 19 13.3 101100 100
2007-07-10 06:23:28 51°13.599 2°56.094 1.2 19 13.3 101100 100
2007-07-10 06:23:33 51°13.599 2°56.094 1.3 15 13.3 101100 100
2007-07-10 06:23:38 51°13.599 2°56.094 1.5 9 13.3 101100 100
2007-07-10 06:23:43 51°13.599 2°56.094 1.4 24 13.3 101100 100
2007-07-10 06:23:48 51°13.599 2°56.094 1.8 18 13.3 101100 100
2007-07-10 06:23:53 51°13.599 2°56.093 2 23 13.3 101100 100
2007-07-10 06:23:58 51°13.599 2°56.093 1.8 25 13.3 101100 100
2007-07-10 06:24:03 51°13.599 2°56.093 1.8 21 13.3 101100 100
2007-07-10 06:24:08 51°13.599 2°56.093 1.8 22 13.3 101100 100
2007-07-10 06:24:13 51°13.599 2°56.093 1.4 30 13.4 101100 100
2007-07-10 06:24:18 51°13.599 2°56.093 1.3 32 13.4 101100 100
2007-07-10 06:24:23 51°13.599 2°56.093 1.9 23 13.4 101100 100
2007-07-10 06:24:28 51°13.599 2°56.093 1.8 26 13.4 101100 100
2007-07-10 06:24:33 51°13.599 2°56.093 1.9 21 13.4 101100 100
2007-07-10 06:24:38 51°13.599 2°56.093 2.1 15 13.4 101100 100
2007-07-10 06:24:43 51°13.599 2°56.093 2.2 25 13.4 101110 100
2007-07-10 06:24:48 51°13.599 2°56.094 1.9 22 13.4 101110 100
2007-07-10 06:24:53 51°13.599 2°56.093 1.9 27 13.4 101100 100
2007-07-10 06:24:58 51°13.599 2°56.094 2.2 24 13.4 101100 100
2007-07-10 06:25:03 51°13.599 2°56.094 1.7 23 13.4 101100 100
2007-07-10 06:25:08 51°13.599 2°56.094 1.8 31 13.4 101100 100
2007-07-10 06:25:13 51°13.599 2°56.094 1.9 37 13.4 101100 100
2007-07-10 06:25:18 51°13.599 2°56.094 1.6 32 13.4 101100 100
2007-07-10 06:25:23 51°13.599 2°56.094 1.4 31 13.4 101110 100
2007-07-10 06:25:28 51°13.599 2°56.094 1.7 37 13.4 101110 100
2007-07-10 06:25:33 51°13.599 2°56.094 1.2 26 13.4 101100 100
2007-07-10 06:25:38 51°13.599 2°56.094 0.8 12 13.4 101100 100
2007-07-10 06:25:43 51°13.599 2°56.094 0.7 28 13.4 101100 100
2007-07-10 06:25:48 51°13.599 2°56.094 0.9 28 13.4 101100 100
2007-07-10 06:25:53 51°13.599 2°56.094 0.9 25 13.4 101100 100
2007-07-10 06:25:58 51°13.599 2°56.094 1.1 20 13.4 101100 100
2007-07-10 06:26:03 51°13.599 2°56.094 1.2 29 13.5 101100 100
2007-07-10 06:26:08 51°13.599 2°56.094 1.2 30 13.5 101100 100
2007-07-10 06:26:13 51°13.599 2°56.094 1.6 21 13.5 101100 100
2007-07-10 06:26:18 51°13.6 2°56.094 1.5 18 13.5 101100 100
2007-07-10 06:26:23 51°13.6 2°56.094 1.4 18 13.5 101100 100
2007-07-10 06:26:28 51°13.6 2°56.093 1.8 21 13.5 101100 100
2007-07-10 06:26:33 51°13.6 2°56.093 1.5 41 13.5 101100 100
2007-07-10 06:26:38 51°13.6 2°56.093 1.3 38 13.5 101100 100
2007-07-10 06:26:43 51°13.6 2°56.093 1.2 19 13.5 101100 100
2007-07-10 06:26:48 51°13.6 2°56.093 1.4 18 13.5 101100 100
2007-07-10 06:26:53 51°13.599 2°56.093 1.4 32 13.5 101100 100
2007-07-10 06:26:58 51°13.599 2°56.093 1.9 33 13.5 101100 100
2007-07-10 06:27:03 51°13.599 2°56.093 1.7 33 13.6 101100 100
2007-07-10 06:27:08 51°13.599 2°56.093 1.6 35 13.6 101100 100
2007-07-10 06:27:13 51°13.599 2°56.093 1.9 39 13.6 101100 100
2007-07-10 06:27:18 51°13.599 2°56.093 2 29 13.6 101100 100
2007-07-10 06:27:23 51°13.6 2°56.093 1.3 26 13.6 101100 100
2007-07-10 06:27:28 51°13.6 2°56.093 1.2 25 13.6 101100 100
2007-07-10 06:27:33 51°13.6 2°56.093 1.4 22 13.6 101100 100
2007-07-10 06:27:38 51°13.6 2°56.093 1.6 28 13.6 101100 100
2007-07-10 06:27:43 51°13.6 2°56.093 1.5 19 13.6 101100 100
2007-07-10 06:27:48 51°13.6 2°56.093 1.4 21 13.6 101100 100
2007-07-10 06:27:53 51°13.6 2°56.093 1.2 17 13.6 101100 100
2007-07-10 06:27:58 51°13.6 2°56.093 1.2 23 13.6 101100 100
2007-07-10 06:28:03 51°13.6 2°56.093 1.1 25 13.6 101100 100
2007-07-10 06:28:08 51°13.6 2°56.093 1.3 21 13.6 101100 100
2007-07-10 06:28:13 51°13.6 2°56.093 1.6 27 13.6 101100 100
2007-07-10 06:28:18 51°13.6 2°56.093 1.9 30 13.6 101100 100
2007-07-10 06:28:23 51°13.6 2°56.093 1.6 31 13.6 101100 100
2007-07-10 06:28:28 51°13.6 2°56.093 1.6 31 13.6 101100 100
2007-07-10 06:28:33 51°13.6 2°56.093 2.1 36 13.7 101100 100
2007-07-10 06:28:38 51°13.6 2°56.093 1.7 37 13.7 101100 100
2007-07-10 06:28:43 51°13.6 2°56.093 1.7 34 13.7 101100 100
2007-07-10 06:28:48 51°13.599 2°56.093 1.2 32 13.7 101100 100
2007-07-10 06:28:53 51°13.599 2°56.093 1.5 25 13.7 101110 100
2007-07-10 06:28:58 51°13.599 2°56.094 1.3 33 13.7 101110 100
2007-07-10 06:29:03 51°13.599 2°56.094 1.2 36 13.7 101100 100
2007-07-10 06:29:08 51°13.599 2°56.094 1.2 42 13.7 101100 100
2007-07-10 06:29:13 51°13.599 2°56.094 1.4 77 13.7 101100 100
2007-07-10 06:29:18 51°13.599 2°56.094 1.6 38 13.7 101100 100
2007-07-10 06:29:23 51°13.599 2°56.094 1.3 80 13.7 101100 100
2007-07-10 06:29:28 51°13.599 2°56.094 1.1 31 13.7 101100 100
2007-07-10 06:29:33 51°13.599 2°56.094 1.4 36 13.7 101110 100
2007-07-10 06:29:38 51°13.599 2°56.094 2.1 34 13.7 101110 100
2007-07-10 06:29:43 51°13.599 2°56.094 1.9 36 13.7 101100 100
2007-07-10 06:29:48 51°13.599 2°56.094 3 34 13.7 101100 100
2007-07-10 06:29:53 51°13.599 2°56.095 3.2 45 13.8 101100 100
2007-07-10 06:29:58 51°13.599 2°56.095 2.4 44 13.8 101100 100
2007-07-10 06:30:03 51°13.599 2°56.095 2 40 13.8 101100 100
2007-07-10 06:30:08 51°13.599 2°56.095 1.8 35 13.8 101100 100
2007-07-10 06:30:13 51°13.599 2°56.095 2.6 27 13.8 101110 100
2007-07-10 06:30:18 51°13.599 2°56.095 2.3 32 13.8 101110 100
2007-07-10 06:30:23 51°13.599 2°56.095 2.8 36 13.8 101100 100
2007-07-10 06:30:28 51°13.599 2°56.095 3.4 35 13.8 101100 100
2007-07-10 06:30:33 51°13.598 2°56.096 3.2 22 13.8 101110 100
2007-07-10 06:30:38 51°13.598 2°56.096 2 34 13.8 101110 100
2007-07-10 06:30:43 51°13.598 2°56.096 2.2 20 13.8 101100 100
2007-07-10 06:30:48 51°13.597 2°56.096 2.8 38 13.8 101100 100
2007-07-10 06:30:53 51°13.597 2°56.097 2.6 42 13.9 101100 100
2007-07-10 06:30:58 51°13.597 2°56.097 3.4 37 13.9 101100 100
2007-07-10 06:31:03 51°13.597 2°56.097 3.4 38 13.8 101100 100
2007-07-10 06:31:08 51°13.597 2°56.097 4.9 35 13.8 101100 100
2007-07-10 06:31:13 51°13.597 2°56.097 3.8 30 13.9 101110 100
2007-07-10 06:31:18 51°13.597 2°56.097 4 40 13.9 101110 100
2007-07-10 06:31:23 51°13.597 2°56.097 3.9 22 13.9 101100 100
2007-07-10 06:31:28 51°13.597 2°56.097 3.4 34 13.9 101100 100
2007-07-10 06:31:33 51°13.597 2°56.097 3.6 75 13.9 101110 100
2007-07-10 06:31:38 51°13.597 2°56.097 3.1 40 13.9 101110 100
2007-07-10 06:31:43 51°13.597 2°56.097 4 39 13.9 101100 100
2007-07-10 06:31:48 51°13.597 2°56.097 3.8 39 13.9 101100 100
2007-07-10 06:31:53 51°13.597 2°56.097 3.6 41 13.9 101100 100
2007-07-10 06:31:58 51°13.597 2°56.097 4.9 39 13.9 101100 100
2007-07-10 06:32:03 51°13.597 2°56.097 5.4 38 13.9 101100 100
2007-07-10 06:32:08 51°13.597 2°56.097 5.2 31 13.9 101100 100
2007-07-10 06:32:13 51°13.597 2°56.097 4.6 44 13.9 101110 100
2007-07-10 06:32:18 51°13.597 2°56.097 4 39 13.9 101110 100
2007-07-10 06:32:23 51°13.597 2°56.097 4 41 13.9 101110 100
2007-07-10 06:32:28 51°13.597 2°56.097 4.4 41 13.9 101110 100
2007-07-10 06:32:33 51°13.597 2°56.097 5.2 41 13.9 101110 100
2007-07-10 06:32:38 51°13.597 2°56.097 4.9 43 13.9 101110 100
2007-07-10 06:32:43 51°13.597 2°56.097 5.1 79 13.9 101100 100
2007-07-10 06:32:48 51°13.597 2°56.097 4.9 43 13.9 101100 100
2007-07-10 06:32:53 51°13.597 2°56.098 4.7 43 13.9 101110 100
2007-07-10 06:32:58 51°13.597 2°56.098 2.9 38 13.9 101110 100
2007-07-10 06:33:03 51°13.597 2°56.098 3.9 41 13.9 101110 100
2007-07-10 06:33:08 51°13.597 2°56.098 3.7 34 13.9 101110 100
2007-07-10 06:33:13 51°13.597 2°56.097 4.1 44 13.9 101110 100
2007-07-10 06:33:18 51°13.597 2°56.097 3.9 35 13.9 101110 100
2007-07-10 06:33:23 51°13.597 2°56.097 3.2 39 13.9 101110 100
2007-07-10 06:33:28 51°13.597 2°56.097 3.2 42 13.9 101110 100
2007-07-10 06:33:33 51°13.597 2°56.098 3.5 41 13.9 101110 100
2007-07-10 06:33:38 51°13.597 2°56.097 3.9 39 13.9 101110 100
2007-07-10 06:33:43 51°13.597 2°56.097 4.3 39 13.9 101100 100
2007-07-10 06:33:48 51°13.597 2°56.097 4.5 31 13.9 101100 100
2007-07-10 06:33:53 51°13.597 2°56.098 5 35 13.9 101100 100
2007-07-10 06:33:58 51°13.597 2°56.097 2.8 33 13.9 101100 100
2007-07-10 06:34:03 51°13.597 2°56.097 2.8 40 14 101110 100
2007-07-10 06:34:08 51°13.597 2°56.097 3.2 38 14 101110 100
2007-07-10 06:34:13 51°13.597 2°56.097 3.2 36 14 101100 100
2007-07-10 06:34:18 51°13.597 2°56.097 3 29 14 101100 100
2007-07-10 06:34:23 51°13.597 2°56.097 3.6 81 14 101100 100
2007-07-10 06:34:28 51°13.597 2°56.097 3.5 40 14 101100 100
2007-07-10 06:34:33 51°13.597 2°56.097 3.4 80 14 101100 100
2007-07-10 06:34:38 51°13.597 2°56.097 3.2 33 14 101100 100
2007-07-10 06:34:43 51°13.597 2°56.097 3.3 77 14.1 101100 100
2007-07-10 06:34:48 51°13.597 2°56.097 2.9 43 14.1 101100 100
2007-07-10 06:34:53 51°13.597 2°56.097 2.9 43 14.1 101100 100
2007-07-10 06:34:58 51°13.597 2°56.097 3 38 14.1 101100 100
2007-07-10 06:35:03 51°13.597 2°56.097 3.3 76 14.1 101100 100
2007-07-10 06:35:08 51°13.597 2°56.097 3.2 35 14.1 101100 100
2007-07-10 06:35:13 51°13.597 2°56.097 3 77 14.1 101100 100
2007-07-10 06:35:18 51°13.597 2°56.097 2.6 38 14.1 101100 100
2007-07-10 06:35:23 51°13.597 2°56.097 1.9 81 14.1 101100 100
2007-07-10 06:35:28 51°13.597 2°56.097 3.1 33 14.1 101100 100
2007-07-10 06:35:33 51°13.597 2°56.097 3.4 78 14.1 101100 100
2007-07-10 06:35:38 51°13.597 2°56.097 3.6 44 14.1 101100 100
2007-07-10 06:35:43 51°13.597 2°56.097 3.7 40 14.1 101110 100
2007-07-10 06:35:48 51°13.597 2°56.097 4.3 34 14.1 101110 100
2007-07-10 06:35:53 51°13.597 2°56.097 4.5 24 14.1 101100 100
2007-07-10 06:35:58 51°13.598 2°56.097 4.4 34 14.1 101100 100
2007-07-10 06:36:03 51°13.598 2°56.097 2.9 45 14.1 101100 100
2007-07-10 06:36:08 51°13.598 2°56.097 1.8 39 14.1 101100 100
2007-07-10 06:36:13 51°13.598 2°56.097 2.7 76 14.2 101110 100
2007-07-10 06:36:18 51°13.598 2°56.097 3.3 32 14.2 101110 100
2007-07-10 06:36:23 51°13.598 2°56.097 2.6 77 14.2 101110 100
2007-07-10 06:36:28 51°13.598 2°56.097 2.8 33 14.2 101110 100
2007-07-10 06:36:33 51°13.598 2°56.097 4.1 80 14.2 101110 100
2007-07-10 06:36:38 51°13.598 2°56.097 4.7 32 14.2 101110 100
2007-07-10 06:36:43 51°13.598 2°56.097 3.8 75 14.2 101100 99
2007-07-10 06:36:48 51°13.598 2°56.097 4.5 43 14.2 101100 99
2007-07-10 06:36:53 51°13.598 2°56.097 4.7 41 14.2 101100 99
2007-07-10 06:36:58 51°13.598 2°56.097 3.4 34 14.2 101100 99
2007-07-10 06:37:03 51°13.598 2°56.097 3.8 76 14.2 101100 99
2007-07-10 06:37:08 51°13.598 2°56.096 4.2 38 14.2 101100 99
2007-07-10 06:37:13 51°13.598 2°56.096 4.4 43 14.2 101110 99
2007-07-10 06:37:18 51°13.598 2°56.096 2.9 44 14.2 101110 99
2007-07-10 06:37:23 51°13.598 2°56.096 3.3 43 14.2 101100 99
2007-07-10 06:37:28 51°13.598 2°56.097 3.5 33 14.2 101100 99
2007-07-10 06:37:33 51°13.597 2°56.097 3.9 77 14.2 101100 99
2007-07-10 06:37:38 51°13.597 2°56.097 4.9 37 14.2 101100 99
2007-07-10 06:37:43 51°13.597 2°56.097 4.1 81 14.3 101100 99
2007-07-10 06:37:48 51°13.597 2°56.097 4.5 39 14.3 101100 99
2007-07-10 06:37:53 51°13.597 2°56.097 3.9 44 14.3 101100 99
2007-07-10 06:37:58 51°13.596 2°56.097 2.5 38 14.3 101100 99
2007-07-10 06:38:03 51°13.596 2°56.097 5.1 79 14.3 101100 99
2007-07-10 06:38:08 51°13.596 2°56.097 4 34 14.3 101100 99
2007-07-10 06:38:13 51°13.596 2°56.097 4 38 14.3 101100 98
2007-07-10 06:38:18 51°13.596 2°56.097 3.1 35 14.3 101100 98
2007-07-10 06:38:23 51°13.596 2°56.097 2.9 82 14.3 101100 98
2007-07-10 06:38:28 51°13.596 2°56.097 3.3 32 14.3 101100 98
2007-07-10 06:38:33 51°13.596 2°56.097 3.6 44 14.3 101100 98
2007-07-10 06:38:38 51°13.596 2°56.097 3.4 37 14.3 101100 98
2007-07-10 06:38:43 51°13.597 2°56.097 4.1 41 14.4 101100 98
2007-07-10 06:38:48 51°13.597 2°56.097 4.4 39 14.4 101100 98
2007-07-10 06:38:53 51°13.597 2°56.097 4.3 39 14.4 101100 98
2007-07-10 06:38:58 51°13.597 2°56.097 4.2 41 14.4 101100 98
2007-07-10 06:39:03 51°13.597 2°56.097 4.6 40 14.4 101100 98
2007-07-10 06:39:08 51°13.597 2°56.097 4.8 33 14.4 101100 98
2007-07-10 06:39:13 51°13.597 2°56.097 3.3 39 14.5 101100 98
2007-07-10 06:39:18 51°13.597 2°56.097 4.9 39 14.5 101100 98
2007-07-10 06:39:23 51°13.597 2°56.097 3.3 80 14.5 101100 98
2007-07-10 06:39:28 51°13.597 2°56.097 3.4 39 14.5 101100 98
2007-07-10 06:39:33 51°13.597 2°56.097 3.2 75 14.5 101100 98
2007-07-10 06:39:38 51°13.597 2°56.097 2.8 39 14.5 101100 98
2007-07-10 06:39:43 51°13.597 2°56.097 4.4 81 14.5 101100 97
2007-07-10 06:39:48 51°13.597 2°56.097 3.9 33 14.5 101100 97
2007-07-10 06:39:53 51°13.597 2°56.097 3.9 42 14.5 101100 97
2007-07-10 06:39:58 51°13.597 2°56.097 5.4 36 14.5 101100 97
2007-07-10 06:40:03 51°13.597 2°56.097 5.6 41 14.5 101100 97
2007-07-10 06:40:08 51°13.597 2°56.097 5 42 14.5 101100 97
2007-07-10 06:40:13 51°13.597 2°56.097 5 42 14.5 101100 97
2007-07-10 06:40:18 51°13.597 2°56.097 4.2 38 14.5 101100 97
2007-07-10 06:40:23 51°13.597 2°56.097 5 39 14.5 101100 97
2007-07-10 06:40:28 51°13.597 2°56.096 4.4 43 14.5 101100 97
2007-07-10 06:40:33 51°13.597 2°56.096 5.3 36 14.5 101100 96
2007-07-10 06:40:38 51°13.597 2°56.096 5.3 38 14.5 101100 96
2007-07-10 06:40:43 51°13.597 2°56.096 4.8 34 14.5 101100 96
2007-07-10 06:40:48 51°13.597 2°56.096 3.6 35 14.5 101100 96
2007-07-10 06:40:53 51°13.597 2°56.096 3.2 38 14.5 101100 96
2007-07-10 06:40:58 51°13.597 2°56.096 3.5 33 14.5 101100 96
2007-07-10 06:41:03 51°13.597 2°56.095 3.5 44 14.5 101100 96
2007-07-10 06:41:08 51°13.597 2°56.095 3.1 41 14.5 101100 96
2007-07-10 06:41:13 51°13.597 2°56.094 4 80 14.5 101100 96
2007-07-10 06:41:18 51°13.598 2°56.093 3.6 37 14.5 101100 96
2007-07-10 06:41:23 51°13.598 2°56.092 3.4 43 14.6 101100 96
2007-07-10 06:41:28 51°13.597 2°56.092 3.4 39 14.6 101100 96
2007-07-10 06:41:33 51°13.597 2°56.092 3.2 45 14.6 101100 96
2007-07-10 06:41:38 51°13.597 2°56.093 3.5 43 14.6 101100 96
2007-07-10 06:41:43 51°13.597 2°56.094 5.1 34 14.6 101100 95
2007-07-10 06:41:48 51°13.597 2°56.095 4.9 28 14.6 101100 95
2007-07-10 06:41:53 51°13.597 2°56.096 4.1 32 14.6 101100 95
2007-07-10 06:41:58 51°13.597 2°56.096 4 35 14.6 101100 95
2007-07-10 06:42:03 51°13.597 2°56.097 3.4 26 14.6 101100 95
2007-07-10 06:42:08 51°13.597 2°56.097 4.2 32 14.6 101100 95
2007-07-10 06:42:13 51°13.596 2°56.097 4.7 44 14.6 101100 95
2007-07-10 06:42:18 51°13.597 2°56.097 4 36 14.6 101100 95
2007-07-10 06:42:23 51°13.598 2°56.096 4.1 35 14.7 101100 94
2007-07-10 06:42:28 51°13.597 2°56.097 4 39 14.7 101100 94
2007-07-10 06:42:33 51°13.595 2°56.098 3.9 44 14.6 101100 94
2007-07-10 06:42:38 51°13.593 2°56.098 3.5 37 14.6 101100 94
2007-07-10 06:42:43 51°13.593 2°56.096 4.3 41 14.7 101100 94
2007-07-10 06:42:48 51°13.593 2°56.094 5.9 40 14.7 101100 94
2007-07-10 06:42:53 51°13.593 2°56.092 5.9 39 14.7 101100 94
2007-07-10 06:42:58 51°13.593 2°56.091 4.9 41 14.7 101100 94
2007-07-10 06:43:03 51°13.593 2°56.091 5.7 75 14.7 101100 94
2007-07-10 06:43:08 51°13.592 2°56.091 4.8 34 14.7 101100 94
2007-07-10 06:43:13 51°13.591 2°56.092 4.5 77 14.7 101100 93
2007-07-10 06:43:18 51°13.59 2°56.094 4.8 36 14.7 101100 93
2007-07-10 06:43:23 51°13.589 2°56.095 4.5 39 14.7 101100 93
2007-07-10 06:43:28 51°13.589 2°56.096 3.8 32 14.7 101100 93
2007-07-10 06:43:33 51°13.59 2°56.096 3.4 80 14.7 101100 93
2007-07-10 06:43:38 51°13.59 2°56.096 3.4 36 14.7 101100 93
2007-07-10 06:43:43 51°13.591 2°56.096 3.7 76 14.7 101100 92
2007-07-10 06:43:48 51°13.591 2°56.095 3.9 40 14.7 101100 92
2007-07-10 06:43:53 51°13.591 2°56.097 3.6 27 14.7 101100 92
2007-07-10 06:43:58 51°13.591 2°56.099 3.8 42 14.7 101100 92
2007-07-10 06:44:03 51°13.591 2°56.1 4 38 14.7 101100 92
2007-07-10 06:44:08 51°13.591 2°56.101 3.7 37 14.7 101100 92
2007-07-10 06:44:13 51°13.591 2°56.101 4.5 20 14.7 101100 92
2007-07-10 06:44:18 51°13.591 2°56.101 4.3 36 14.7 101100 92
2007-07-10 06:44:23 51°13.591 2°56.101 3.3 45 14.7 101100 92
2007-07-10 06:44:28 51°13.592 2°56.101 3.7 42 14.7 101100 92
2007-07-10 06:44:33 51°13.592 2°56.1 4.2 42 14.8 101100 91
2007-07-10 06:44:38 51°13.592 2°56.1 4.4 44 14.8 101100 91
2007-07-10 06:44:43 51°13.593 2°56.099 4.3 29 14.7 101090 91
2007-07-10 06:44:48 51°13.593 2°56.099 3.8 36 14.7 101090 91
2007-07-10 06:44:53 51°13.593 2°56.098 3.7 27 14.8 101100 91
2007-07-10 06:44:58 51°13.593 2°56.099 4.5 29 14.8 101100 91
2007-07-10 06:45:03 51°13.594 2°56.099 4.4 25 14.8 101100 91
2007-07-10 06:45:08 51°13.594 2°56.099 3.8 24 14.8 101100 91
2007-07-10 06:45:13 51°13.594 2°56.099 4 26 14.8 101100 91
2007-07-10 06:45:18 51°13.594 2°56.099 5.2 36 14.8 101100 91
2007-07-10 06:45:23 51°13.594 2°56.099 4.3 43 14.8 101100 91
2007-07-10 06:45:28 51°13.594 2°56.098 2.8 36 14.8 101100 91
2007-07-10 06:45:33 51°13.595 2°56.098 3.2 38 14.8 101090 91
2007-07-10 06:45:38 51°13.595 2°56.098 3.6 32 14.8 101090 91
2007-07-10 06:45:43 51°13.595 2°56.098 3.2 37 14.8 101090 90
2007-07-10 06:45:48 51°13.595 2°56.098 3.6 43 14.8 101090 90
2007-07-10 06:45:53 51°13.595 2°56.099 3.7 43 14.9 101100 90
2007-07-10 06:45:58 51°13.595 2°56.099 3.5 41 14.9 101100 90
2007-07-10 06:46:03 51°13.595 2°56.099 3.1 22 14.9 101090 90
2007-07-10 06:46:08 51°13.595 2°56.099 2.8 21 14.9 101090 90
2007-07-10 06:46:13 51°13.595 2°56.099 2.8 40 14.9 101090 90
2007-07-10 06:46:18 51°13.595 2°56.099 3.4 44 14.9 101090 90
2007-07-10 06:46:23 51°13.595 2°56.099 4.8 43 14.9 101090 90
2007-07-10 06:46:28 51°13.595 2°56.099 4 42 14.9 101090 90
2007-07-10 06:46:33 51°13.595 2°56.098 4.3 36 14.9 101100 90
2007-07-10 06:46:38 51°13.595 2°56.098 4.2 37 14.9 101100 90
2007-07-10 06:46:43 51°13.595 2°56.098 3.5 34 14.9 101090 90
2007-07-10 06:46:48 51°13.596 2°56.097 3.1 37 14.9 101090 90
2007-07-10 06:46:53 51°13.596 2°56.097 3 43 14.9 101090 89
2007-07-10 06:46:58 51°13.596 2°56.099 3.3 41 14.9 101090 89
2007-07-10 06:47:03 51°13.595 2°56.099 3.8 36 15 101090 89
2007-07-10 06:47:08 51°13.596 2°56.099 3.5 42 15 101090 89
2007-07-10 06:47:13 51°13.596 2°56.099 3.2 25 15 101090 89
2007-07-10 06:47:18 51°13.596 2°56.099 3.5 31 15 101090 89
2007-07-10 06:47:23 51°13.596 2°56.099 3.8 38 15 101090 89
2007-07-10 06:47:28 51°13.596 2°56.099 4.2 41 15 101090 89
2007-07-10 06:47:33 51°13.596 2°56.099 4.3 28 15 101090 89
2007-07-10 06:47:38 51°13.596 2°56.099 3.3 41 15 101090 89
2007-07-10 06:47:43 51°13.596 2°56.099 3.8 34 15 101090 89
2007-07-10 06:47:48 51°13.596 2°56.099 4.7 38 15 101090 89
2007-07-10 06:47:53 51°13.596 2°56.099 5.5 37 15 101090 89
2007-07-10 06:47:58 51°13.596 2°56.099 4.1 25 15 101090 89
2007-07-10 06:48:03 51°13.596 2°56.099 4.1 27 15 101090 88
2007-07-10 06:48:08 51°13.596 2°56.097 3.7 31 15 101090 88
2007-07-10 06:48:13 51°13.596 2°56.096 5.2 28 15 101090 88
2007-07-10 06:48:18 51°13.596 2°56.096 3.5 25 15 101090 88
2007-07-10 06:48:23 51°13.596 2°56.097 3.9 33 15 101090 88
2007-07-10 06:48:28 51°13.596 2°56.097 4 28 15 101090 88
2007-07-10 06:48:33 51°13.596 2°56.097 4 30 15 101090 88
2007-07-10 06:48:38 51°13.596 2°56.097 4.8 37 15 101090 88
2007-07-10 06:48:43 51°13.596 2°56.098 4.4 43 15 101090 88
2007-07-10 06:48:48 51°13.596 2°56.098 4 44 15 101090 88
2007-07-10 06:48:53 51°13.596 2°56.097 3.9 27 15 101090 88
2007-07-10 06:48:58 51°13.596 2°56.097 2.9 44 15 101090 88
2007-07-10 06:49:03 51°13.596 2°56.097 2.8 82 15 101090 88
2007-07-10 06:49:08 51°13.596 2°56.097 2.7 33 15 101090 88
2007-07-10 06:49:13 51°13.596 2°56.097 3 31 15.1 101090 88
2007-07-10 06:49:18 51°13.596 2°56.097 3 39 15.1 101090 88
2007-07-10 06:49:23 51°13.596 2°56.097 3.2 44 15.1 101090 88
2007-07-10 06:49:28 51°13.596 2°56.097 3.6 32 15.1 101090 88
2007-07-10 06:49:33 51°13.596 2°56.096 3.1 36 15.1 101090 88
2007-07-10 06:49:38 51°13.596 2°56.096 3.5 38 15.1 101090 88
2007-07-10 06:49:43 51°13.596 2°56.096 2.8 27 15.1 101090 88
2007-07-10 06:49:48 51°13.596 2°56.096 3.3 39 15.1 101090 88
2007-07-10 06:49:53 51°13.596 2°56.097 2.7 41 15.1 101090 88
2007-07-10 06:49:58 51°13.596 2°56.097 3.3 41 15.1 101090 88
2007-07-10 06:50:03 51°13.596 2°56.097 2.9 38 15.1 101090 88
2007-07-10 06:50:08 51°13.596 2°56.097 3.1 28 15.1 101090 88
2007-07-10 06:50:13 51°13.596 2°56.097 1.5 32 15.2 101090 88
2007-07-10 06:50:18 51°13.596 2°56.097 3 37 15.2 101090 88
2007-07-10 06:50:23 51°13.596 2°56.098 3.2 44 15.2 101100 87
2007-07-10 06:50:28 51°13.596 2°56.098 3.5 41 15.2 101100 87
2007-07-10 06:50:33 51°13.596 2°56.098 3.5 34 15.1 101100 87
2007-07-10 06:50:38 51°13.596 2°56.098 2.5 26 15.1 101100 87
2007-07-10 06:50:43 51°13.596 2°56.098 3.7 33 15.1 101090 87
2007-07-10 06:50:48 51°13.596 2°56.098 2.8 41 15.1 101090 87
2007-07-10 06:50:53 51°13.596 2°56.099 2.8 40 15.1 101100 87
2007-07-10 06:50:58 51°13.596 2°56.099 3.5 23 15.1 101100 87
2007-07-10 06:51:03 51°13.596 2°56.099 2.6 21 15.1 101100 87
2007-07-10 06:51:08 51°13.596 2°56.099 3.4 24 15.1 101100 87
2007-07-10 06:51:13 51°13.595 2°56.099 4.4 31 15.1 101100 87
2007-07-10 06:51:18 51°13.595 2°56.099 3.5 35 15.1 101100 87
2007-07-10 06:51:23 51°13.595 2°56.099 3.6 37 15.1 101100 87
2007-07-10 06:51:28 51°13.595 2°56.099 4.3 43 15.1 101100 87
2007-07-10 06:51:33 51°13.596 2°56.099 3.3 37 15.2 101090 87
2007-07-10 06:51:38 51°13.596 2°56.099 3.4 42 15.2 101090 87
2007-07-10 06:51:43 51°13.596 2°56.099 4.5 44 15.2 101090 86
2007-07-10 06:51:48 51°13.596 2°56.099 4.9 44 15.2 101090 86
2007-07-10 06:51:53 51°13.596 2°56.099 4.5 43 15.2 101100 86
2007-07-10 06:51:58 51°13.596 2°56.099 4.4 40 15.2 101100 86
2007-07-10 06:52:03 51°13.596 2°56.099 4.6 43 15.2 101100 86
2007-07-10 06:52:08 51°13.596 2°56.099 4.8 40 15.2 101100 86
2007-07-10 06:52:13 51°13.596 2°56.099 3.1 33 15.1 101090 86
2007-07-10 06:52:18 51°13.596 2°56.099 2.6 43 15.1 101090 86
2007-07-10 06:52:23 51°13.596 2°56.099 2.9 76 15.1 101100 86
2007-07-10 06:52:28 51°13.596 2°56.099 3 37 15.1 101100 86
2007-07-10 06:52:33 51°13.596 2°56.099 4.1 38 15.1 101100 85
2007-07-10 06:52:38 51°13.596 2°56.099 4.2 42 15.1 101100 85
2007-07-10 06:52:43 51°13.596 2°56.099 4 31 15.1 101100 85
2007-07-10 06:52:48 51°13.596 2°56.099 4.3 39 15.1 101100 85
2007-07-10 06:52:53 51°13.596 2°56.099 3.5 34 15.1 101100 85
2007-07-10 06:52:58 51°13.596 2°56.099 2.6 41 15.1 101100 85
2007-07-10 06:53:03 51°13.596 2°56.099 2.7 39 15.1 101100 85
2007-07-10 06:53:08 51°13.596 2°56.099 3.3 39 15.1 101100 85
2007-07-10 06:53:13 51°13.597 2°56.099 3.1 32 15.1 101100 85
2007-07-10 06:53:18 51°13.597 2°56.099 2.2 37 15.1 101100 85
2007-07-10 06:53:23 51°13.597 2°56.099 4.1 35 15.1 101100 85
2007-07-10 06:53:28 51°13.597 2°56.099 5.5 41 15.1 101100 85
2007-07-10 06:53:33 51°13.597 2°56.099 4.5 44 15.2 101100 86
2007-07-10 06:53:38 51°13.597 2°56.099 4.7 39 15.2 101100 86
2007-07-10 06:53:43 51°13.597 2°56.099 4.2 31 15.2 101100 86
2007-07-10 06:53:48 51°13.597 2°56.099 3.5 35 15.2 101100 86
2007-07-10 06:53:53 51°13.597 2°56.098 3.2 33 15.2 101100 85
2007-07-10 06:53:58 51°13.597 2°56.098 4 31 15.2 101100 85
2007-07-10 06:54:03 51°13.597 2°56.098 3.2 38 15.2 101100 85
2007-07-10 06:54:08 51°13.597 2°56.098 3.6 35 15.2 101100 85
2007-07-10 06:54:13 51°13.597 2°56.098 2.8 30 15.2 101100 85
2007-07-10 06:54:18 51°13.597 2°56.098 2.4 43 15.2 101100 85
2007-07-10 06:54:23 51°13.597 2°56.098 3 82 15.1 101100 84
2007-07-10 06:54:28 51°13.597 2°56.098 2.1 37 15.1 101100 84
2007-07-10 06:54:33 51°13.597 2°56.098 1.9 26 15.2 101100 85
2007-07-10 06:54:38 51°13.597 2°56.098 3.5 36 15.2 101100 85
2007-07-10 06:54:43 51°13.597 2°56.098 3.6 39 15.2 101100 85
2007-07-10 06:54:48 51°13.597 2°56.098 2.8 31 15.2 101100 85
2007-07-10 06:54:53 51°13.597 2°56.098 3.1 33 15.2 101100 85
2007-07-10 06:54:58 51°13.597 2°56.098 3.6 38 15.2 101100 85
2007-07-10 06:55:03 51°13.597 2°56.098 3.2 38 15.2 101100 85
2007-07-10 06:55:08 51°13.597 2°56.098 2.9 40 15.2 101100 85
2007-07-10 06:55:13 51°13.597 2°56.098 2.5 30 15.2 101100 85
2007-07-10 06:55:18 51°13.597 2°56.098 2.8 36 15.2 101100 85
2007-07-10 06:55:23 51°13.597 2°56.098 2.5 41 15.2 101100 85
2007-07-10 06:55:28 51°13.597 2°56.098 2.9 33 15.2 101100 85
2007-07-10 06:55:33 51°13.597 2°56.098 3.3 43 15.2 101100 85
2007-07-10 06:55:38 51°13.597 2°56.098 3.2 41 15.2 101100 85
2007-07-10 06:55:43 51°13.597 2°56.098 3.4 41 15.2 101100 85
2007-07-10 06:55:48 51°13.597 2°56.098 3 35 15.2 101100 85
2007-07-10 06:55:53 51°13.597 2°56.098 2.4 41 15.2 101100 85
2007-07-10 06:55:58 51°13.597 2°56.098 3 42 15.2 101100 85
2007-07-10 06:56:03 51°13.597 2°56.098 3.3 27 15.2 101100 85
2007-07-10 06:56:08 51°13.597 2°56.098 3.6 31 15.2 101100 85
2007-07-10 06:56:13 51°13.597 2°56.098 3.6 29 15.2 101100 84
2007-07-10 06:56:18 51°13.597 2°56.098 3.1 25 15.2 101100 84
2007-07-10 06:56:23 51°13.597 2°56.098 3 28 15.2 101100 84
2007-07-10 06:56:28 51°13.597 2°56.098 3.8 31 15.2 101100 84
2007-07-10 06:56:33 51°13.597 2°56.098 3.4 21 15.2 101100 84
2007-07-10 06:56:38 51°13.597 2°56.097 3.8 32 15.2 101100 84
2007-07-10 06:56:43 51°13.597 2°56.097 4.1 39 15.2 101100 84
2007-07-10 06:56:48 51°13.597 2°56.097 3.2 38 15.2 101100 84
2007-07-10 06:56:53 51°13.597 2°56.097 3.7 21 15.2 101100 84
2007-07-10 06:56:58 51°13.597 2°56.097 4.2 38 15.2 101100 84
2007-07-10 06:57:03 51°13.597 2°56.097 3.9 37 15.2 101100 84
2007-07-10 06:57:08 51°13.597 2°56.097 3.3 41 15.2 101100 84
2007-07-10 06:57:13 51°13.597 2°56.097 3.9 35 15.3 101100 84
2007-07-10 06:57:18 51°13.597 2°56.097 2.9 29 15.3 101100 84
2007-07-10 06:57:23 51°13.597 2°56.097 3.2 38 15.3 101100 84
2007-07-10 06:57:28 51°13.597 2°56.097 3.9 43 15.3 101100 84
2007-07-10 06:57:33 51°13.597 2°56.097 3.4 43 15.3 101100 84
2007-07-10 06:57:38 51°13.597 2°56.097 3.1 40 15.3 101100 84
2007-07-10 06:57:43 51°13.597 2°56.097 2.8 25 15.3 101100 84
2007-07-10 06:57:48 51°13.597 2°56.097 4.3 41 15.3 101100 84
2007-07-10 06:57:53 51°13.597 2°56.097 3.6 35 15.3 101100 84
2007-07-10 06:57:58 51°13.597 2°56.097 3 36 15.3 101100 84
2007-07-10 06:58:03 51°13.597 2°56.097 4.1 28 15.3 101100 84
2007-07-10 06:58:08 51°13.597 2°56.097 3 41 15.3 101100 84
2007-07-10 06:58:13 51°13.597 2°56.097 3.6 26 15.3 101100 84
2007-07-10 06:58:18 51°13.597 2°56.097 3.4 37 15.3 101100 84
2007-07-10 06:58:23 51°13.597 2°56.097 3.2 26 15.3 101100 84
2007-07-10 06:58:28 51°13.597 2°56.097 3.6 42 15.3 101100 84
2007-07-10 06:58:33 51°13.597 2°56.097 3.5 36 15.3 101100 84
2007-07-10 06:58:38 51°13.597 2°56.097 3.1 41 15.3 101100 84
2007-07-10 06:58:43 51°13.597 2°56.097 3 40 15.3 101100 84
2007-07-10 06:58:48 51°13.597 2°56.097 3.2 35 15.3 101100 84
2007-07-10 06:58:53 51°13.597 2°56.097 2.9 36 15.3 101100 83
2007-07-10 06:58:58 51°13.597 2°56.097 3.4 26 15.3 101100 83
2007-07-10 06:59:03 51°13.597 2°56.097 3.2 34 15.3 101100 83
2007-07-10 06:59:08 51°13.597 2°56.097 2 36 15.3 101100 83
2007-07-10 06:59:13 51°13.597 2°56.097 2.5 39 15.3 101100 83
2007-07-10 06:59:18 51°13.597 2°56.097 5 30 15.3 101100 83
2007-07-10 06:59:23 51°13.597 2°56.097 3.1 28 15.3 101100 83
2007-07-10 06:59:28 51°13.597 2°56.097 4.8 19 15.3 101100 83
2007-07-10 06:59:33 51°13.597 2°56.097 5.4 24 15.3 101100 83
2007-07-10 06:59:38 51°13.597 2°56.097 4.2 32 15.3 101100 83
2007-07-10 06:59:43 51°13.597 2°56.097 3.2 34 15.3 101100 83
2007-07-10 06:59:48 51°13.597 2°56.097 3 39 15.3 101100 83
2007-07-10 06:59:53 51°13.598 2°56.096 2.9 40 15.3 101100 83
2007-07-10 06:59:58 51°13.598 2°56.096 2.9 35 15.3 101100 83
2007-07-10 07:00:03 51°13.598 2°56.096 2.2 43 15.3 101090 83
2007-07-10 07:00:08 51°13.598 2°56.096 2.3 35 15.3 101090 83
2007-07-10 07:00:13 51°13.598 2°56.096 2.2 20 15.3 101100 83
2007-07-10 07:00:18 51°13.598 2°56.097 2.9 33 15.3 101100 83
2007-07-10 07:00:23 51°13.598 2°56.097 2.8 40 15.3 101100 83
2007-07-10 07:00:28 51°13.597 2°56.097 4.1 29 15.3 101100 83
2007-07-10 07:00:33 51°13.597 2°56.097 3.8 32 15.4 101100 83
2007-07-10 07:00:38 51°13.597 2°56.097 3.7 38 15.4 101100 83
2007-07-10 07:00:43 51°13.597 2°56.097 3.3 41 15.4 101100 83
2007-07-10 07:00:48 51°13.597 2°56.097 4.1 39 15.4 101100 83
2007-07-10 07:00:53 51°13.598 2°56.097 4.2 40 15.4 101100 83
2007-07-10 07:00:58 51°13.598 2°56.097 3.6 39 15.4 101100 83
2007-07-10 07:01:03 51°13.598 2°56.097 3.8 44 15.4 101100 83
2007-07-10 07:01:08 51°13.598 2°56.097 3.6 45 15.4 101100 83
2007-07-10 07:01:13 51°13.598 2°56.097 3.1 42 15.4 101100 83
2007-07-10 07:01:18 51°13.598 2°56.097 3.5 41 15.4 101100 83
2007-07-10 07:01:23 51°13.598 2°56.097 3.5 38 15.3 101100 82
2007-07-10 07:01:28 51°13.598 2°56.096 4.3 45 15.3 101100 82
2007-07-10 07:01:33 51°13.598 2°56.096 3.8 22 15.3 101100 82
2007-07-10 07:01:38 51°13.598 2°56.096 3.1 32 15.3 101100 82
2007-07-10 07:01:43 51°13.598 2°56.096 3.4 25 15.3 101100 82
2007-07-10 07:01:48 51°13.598 2°56.097 3.5 32 15.3 101100 82
2007-07-10 07:01:53 51°13.598 2°56.097 3.1 22 15.3 101100 82
2007-07-10 07:01:58 51°13.598 2°56.097 3 38 15.3 101100 82
2007-07-10 07:02:03 51°13.598 2°56.097 4.2 81 15.3 101100 82
2007-07-10 07:02:08 51°13.598 2°56.097 3.4 37 15.3 101100 82
2007-07-10 07:02:13 51°13.598 2°56.096 4.1 41 15.3 101100 82
2007-07-10 07:02:18 51°13.598 2°56.096 2.8 38 15.3 101100 82
2007-07-10 07:02:23 51°13.598 2°56.097 2.9 77 15.3 101100 82
2007-07-10 07:02:28 51°13.598 2°56.097 2.8 38 15.3 101100 82
2007-07-10 07:02:33 51°13.598 2°56.097 3.2 45 15.3 101100 82
2007-07-10 07:02:38 51°13.598 2°56.097 3.1 38 15.3 101100 82
2007-07-10 07:02:43 51°13.598 2°56.097 3.3 34 15.3 101100 82
2007-07-10 07:02:48 51°13.598 2°56.096 3.5 38 15.3 101100 82
2007-07-10 07:02:53 51°13.598 2°56.096 3 45 15.3 101100 82
2007-07-10 07:02:58 51°13.598 2°56.096 4.4 37 15.3 101100 82
2007-07-10 07:03:03 51°13.598 2°56.096 4.6 26 15.3 101100 82
2007-07-10 07:03:08 51°13.598 2°56.096 3.5 40 15.3 101100 82
2007-07-10 07:03:13 51°13.598 2°56.096 3.2 43 15.3 101100 82
2007-07-10 07:03:18 51°13.598 2°56.096 3.8 38 15.3 101100 82
2007-07-10 07:03:23 51°13.598 2°56.096 4.6 25 15.3 101100 82
2007-07-10 07:03:28 51°13.598 2°56.096 4.1 41 15.3 101100 82
2007-07-10 07:03:33 51°13.598 2°56.096 3.5 38 15.3 101100 82
2007-07-10 07:03:38 51°13.598 2°56.096 3.3 33 15.3 101100 82
2007-07-10 07:03:43 51°13.598 2°56.096 3.6 33 15.3 101100 82
2007-07-10 07:03:48 51°13.598 2°56.096 3.7 32 15.3 101100 82
2007-07-10 07:03:53 51°13.598 2°56.097 3.9 42 15.3 101100 82
2007-07-10 07:03:58 51°13.598 2°56.097 3.6 42 15.3 101100 82
2007-07-10 07:04:03 51°13.598 2°56.097 2.8 40 15.4 101100 82
2007-07-10 07:04:08 51°13.598 2°56.097 3.1 44 15.4 101100 82
2007-07-10 07:04:13 51°13.598 2°56.096 4.1 44 15.4 101100 82
2007-07-10 07:04:18 51°13.598 2°56.096 3.4 30 15.4 101100 82
2007-07-10 07:04:23 51°13.598 2°56.096 3.1 36 15.4 101100 82
2007-07-10 07:04:28 51°13.598 2°56.096 2.4 44 15.4 101100 82
2007-07-10 07:04:33 51°13.598 2°56.097 6.2 82 15.4 101100 82
2007-07-10 07:04:38 51°13.598 2°56.097 5.7 44 15.4 101100 82
2007-07-10 07:04:43 51°13.598 2°56.097 5.8 25 15.4 101100 82
2007-07-10 07:04:48 51°13.598 2°56.097 5.7 43 15.4 101100 82
2007-07-10 07:04:53 51°13.598 2°56.097 5.6 45 15.4 101100 82
2007-07-10 07:04:58 51°13.598 2°56.097 4.7 42 15.4 101100 82
2007-07-10 07:05:03 51°13.598 2°56.097 4.5 43 15.3 101100 82
2007-07-10 07:05:08 51°13.598 2°56.097 4.7 44 15.3 101100 82
2007-07-10 07:05:13 51°13.598 2°56.097 4.1 43 15.3 101100 81
2007-07-10 07:05:18 51°13.598 2°56.097 4.1 40 15.3 101100 81
2007-07-10 07:05:23 51°13.598 2°56.097 4.1 38 15.3 101100 81
2007-07-10 07:05:28 51°13.598 2°56.097 4.6 41 15.3 101100 81
2007-07-10 07:05:33 51°13.598 2°56.097 4.9 41 15.3 101100 81
2007-07-10 07:05:38 51°13.598 2°56.097 4.3 42 15.3 101100 81
2007-07-10 07:05:43 51°13.598 2°56.097 4.3 36 15.2 101100 81
2007-07-10 07:05:48 51°13.598 2°56.097 4.1 27 15.2 101100 81
2007-07-10 07:05:53 51°13.598 2°56.098 4.6 30 15.3 101100 82
2007-07-10 07:05:58 51°13.598 2°56.098 3.6 28 15.3 101100 82
2007-07-10 07:06:03 51°13.597 2°56.098 3.5 29 15.3 101100 82
2007-07-10 07:06:08 51°13.597 2°56.098 4.5 31 15.3 101100 82
2007-07-10 07:06:13 51°13.597 2°56.098 3 43 15.3 101100 82
2007-07-10 07:06:18 51°13.597 2°56.098 3.3 41 15.3 101100 82
2007-07-10 07:06:23 51°13.597 2°56.098 3.1 41 15.3 101100 82
2007-07-10 07:06:28 51°13.597 2°56.098 3.6 34 15.3 101100 82
2007-07-10 07:06:33 51°13.597 2°56.098 3.5 36 15.3 101100 82
2007-07-10 07:06:38 51°13.597 2°56.098 3.6 45 15.3 101100 82
2007-07-10 07:06:43 51°13.597 2°56.098 3.1 40 15.3 101100 83
2007-07-10 07:06:48 51°13.597 2°56.098 4.3 45 15.3 101100 83